Regional Weather Roundup
Issued by NWS

Home | Current Version | Previous Version | Graphics & Text | Print | Product List | Glossary On
Versions: 1 2 3 4 5 6 7 8 9 10 11 12 13 14 15 16 17 18 19 20 21 22 23 24 25 26 27 28 29 30 31 32 33 34 35 36 37 38 39 40 41 42 43 44 45 46 47 48 49 50
000
ASUS45 KBOU 050607
RWRCO

WEATHER ROUNDUP FOR COLORADO
NATIONAL WEATHER SERVICE DENVER/BOULDER CO
1200 AM MDT THU MAY 05 2016

NOTE: "FAIR" INDICATES FEW OR NO CLOUDS BELOW 12000 FEET WITH NO
SIGNIFICANT WEATHER AND/OR OBSTRUCTIONS TO VISIBILITY.

COZ001>005-013-030-031-050700-
...NORTHWEST COLORADO...

CITY           SKY/WX    TMP DP  RH WIND       PRES   REMARKS
CRAIG          FAIR      41  34  76 CALM      30.18S
HAYDEN         FAIR      52  28  40 SE5       30.19S
MEEKER         FAIR      50  30  46 E7        30.20R
MOUNT WERNER   NOT AVBL
STEAMBOAT SPGS FAIR      46  28  50 CALM      30.21S
WALDEN         FAIR      34  23  64 SE7       30.29S WCI  28
$$

COZ006>008-011-050700-
...WEST CENTRAL VALLEYS...

CITY           SKY/WX    TMP DP  RH WIND       PRES   REMARKS
GRAND JUNCTION FAIR      57  33  40 SE9       30.08F
MONTROSE       FAIR      54  31  41 SE13      30.19R
EAGLE          FAIR      48  28  46 E7        30.24R
RIFLE          FAIR      51  33  50 E3        30.15R
DELTA          NOT AVBL
NUCLA          NOT AVBL
$$

COZ017>023-064>068-050700-
...SOUTHWEST COLORADO...

CITY           SKY/WX    TMP DP  RH WIND       PRES   REMARKS
DURANGO        FAIR      44  32  62 N5        30.24S
CORTEZ         FAIR      46  31  55 CALM      30.18S
PAGOSA SPRINGS FAIR      42  28  57 CALM      30.31S
TELLURIDE      FAIR      48  22  35 SE5       30.39S
WOLF CREEK PAS FAIR      36  19  51 SW20      30.54S
$$

COZ009-010-012-014-032>034-037-058>063-050700-
...CENTRAL COLORADO...

CITY           SKY/WX    TMP DP  RH WIND       PRES   REMARKS
ASPEN          FAIR      43  25  49 SW9       30.28R
BUENA VISTA    FAIR      43  30  60 W6        30.31S
COPPER MTN     NOT AVBL
BERTHOUD PASS  FAIR      32  23  69 W10       30.52S WCI  24
COTTONWOOD PAS FAIR      48  19  32 CALM      30.40S
GUNNISON       FAIR      45  28  53 CALM      30.32R
KREMMLING      FAIR      37  27  65 E3        30.27S
LEADVILLE      FAIR      36  20  52 S5        30.39R
MONARCH PASS   FAIR      37  23  56 SW16      30.60F
SALIDA         NOT AVBL
SUNLIGHT       FAIR      45  23  42 CALM      30.46S
WILKERSON PASS FAIR      37  23  56 S5        30.50S
$$

COZ069>075-050700-
...SAN LUIS VALLEY/SANGRE DE CRISTO MOUNTAINS...

CITY           SKY/WX    TMP DP  RH WIND       PRES   REMARKS
ALAMOSA        FAIR      43  32  65 S3        30.27R
LA VETA PASS   FAIR      43  19  39 S10G20    30.40S
SAGUACHE       FAIR      43  30  61 N8        30.29S
$$

COZ035-036-038>040-050700-
...NORTHERN COLORADO FRONT RANGE...

CITY           SKY/WX    TMP DP  RH WIND       PRES   REMARKS
DENVER INTL AP FAIR      49  37  63 S14       30.15F
DMNS CITY PARK   N/A     56  35  46 SE7       30.15S
AURORA         FAIR      54  35  48 S9        30.17F
FRONT RANGE AP NOT AVBL
ERIE MUNI ARPT FAIR      46  40  80 CALM      30.14F
BOULDER MUN AP FAIR      55  32  41 W5        30.15S
CENTENNIAL     FAIR      51  34  52 S10       30.18R
BROOMFIELD     FAIR      59  34  38 CALM      30.17S
FORT COLLINS   FAIR      54  37  54 S7        30.15F
LONGMONT       FAIR      51  37  59 W5        30.17S
$$

COZ041-046-047-076>085-087-088-050700-
...PIKES PEAK/PALMER DIVIDE AND SOUTHERN FOOTHILLS...

CITY           SKY/WX    TMP DP  RH WIND       PRES   REMARKS
COLO. SPRINGS  FAIR      52  31  44 E7        30.23S
A. F. ACADEMY  FAIR      41  32  70 N8        30.23S
SCHRIEVER AFB  NOT AVBL
ELLICOTT       FAIR     N/A N/A N/A S12       30.21R
FALCON         NOT AVBL
FORT CARSON    MOCLDY    58  31  35 SW6       30.20S
LIMON          FAIR      44  39  82 S3        30.19S
MONUMENT HILL  FAIR      46  32  57 S9        30.26S
TRINIDAD       FAIR      53  32  44 N6        30.16F
$$

COZ042>045-048>051-090-091-050700-
...NORTHEAST COLORADO...

CITY           SKY/WX    TMP DP  RH WIND       PRES   REMARKS
GREELEY ARPT   FAIR      50  39  66 CALM      30.15R
AKRON          FAIR      54  40  59 S13       30.15S
BURLINGTON     FAIR      51  41  68 S9        30.15S
WRAY           NOT AVBL
STERLING       FAIR      48  41  76 W5        30.11S
HOLYOKE        NOT AVBL
FORT MORGAN    FAIR      51  40  65 SE5       30.15S
$$

COZ086-089-092>099-050700-
...SOUTHEAST COLORADO...

CITY           SKY/WX    TMP DP  RH WIND       PRES   REMARKS
PUEBLO         FAIR      53  38  56 NW9       30.13S
LA JUNTA       FAIR      60  40  47 SE6       30.12S
LAMAR          FAIR      51  43  74 VRB5      30.11S
SPRINGFIELD      N/A     50  42  74 S9        30.16R
$$



USA.gov is the U.S. government's official web portal to all federal, state and local government web resources and services.